TimePDT,TemperatureF,Dew PointF,Humidity,Sea Level PressureIn,VisibilityMPH,Wind Direction,Wind SpeedMPH,Gust SpeedMPH,PrecipitationIn,Events,Conditions,WindDirDegrees,DateUTC
12:53 AM,48.0,41.0,77,30.16,10.0,NE,3.5,-,N/A,,Clear,50,2013-05-04 07:53:00
1:53 AM,46.0,41.0,83,30.17,10.0,Calm,Calm,-,N/A,,Partly Cloudy,0,2013-05-04 08:53:00
2:53 AM,46.9,39.9,77,30.16,10.0,NW,6.9,-,N/A,,Clear,310,2013-05-04 09:53:00
3:53 AM,50.0,41.0,71,30.16,10.0,SSW,4.6,-,N/A,,Mostly Cloudy,200,2013-05-04 10:53:00
4:53 AM,46.9,41.0,80,30.18,10.0,NW,9.2,-,N/A,,Overcast,320,2013-05-04 11:53:00
5:53 AM,46.0,41.0,83,30.19,10.0,NNW,6.9,-,N/A,,Mostly Cloudy,330,2013-05-04 12:53:00
6:53 AM,51.1,44.1,77,30.19,10.0,NNW,5.8,-,N/A,,Partly Cloudy,340,2013-05-04 13:53:00
7:53 AM,61.0,44.1,54,30.19,10.0,North,11.5,-,N/A,,Clear,10,2013-05-04 14:53:00
8:53 AM,68.0,37.9,33,30.18,10.0,NE,17.3,26.5,N/A,,Clear,40,2013-05-04 15:53:00
9:53 AM,73.0,34.0,24,30.16,10.0,NE,18.4,29.9,N/A,,Clear,40,2013-05-04 16:53:00
10:53 AM,75.0,32.0,21,30.15,10.0,NE,24.2,28.8,N/A,,Clear,40,2013-05-04 17:53:00
11:53 AM,77.0,32.0,19,30.12,10.0,NNE,20.7,28.8,N/A,,Clear,30,2013-05-04 18:53:00
12:53 PM,79.0,30.9,17,30.09,10.0,ENE,19.6,26.5,N/A,,Clear,60,2013-05-04 19:53:00
1:53 PM,80.1,30.9,17,30.06,10.0,NE,20.7,26.5,N/A,,Clear,50,2013-05-04 20:53:00
2:53 PM,81.0,28.9,15,30.04,10.0,ENE,15.0,21.9,N/A,,Clear,70,2013-05-04 21:53:00
3:53 PM,81.0,30.9,16,30.02,10.0,NNE,18.4,25.3,N/A,,Clear,30,2013-05-04 22:53:00
4:53 PM,82.0,30.9,16,29.99,10.0,NE,19.6,27.6,N/A,,Clear,50,2013-05-04 23:53:00
5:53 PM,80.1,30.9,17,29.98,10.0,NE,18.4,26.5,N/A,,Clear,40,2013-05-05 00:53:00
6:53 PM,77.0,35.1,22,29.96,10.0,NNE,16.1,-,N/A,,Clear,30,2013-05-05 01:53:00
7:53 PM,71.1,37.0,29,29.96,10.0,NNE,12.7,-,N/A,,Clear,30,2013-05-05 02:53:00
8:53 PM,66.9,35.1,31,29.98,10.0,NE,13.8,-,N/A,,Clear,40,2013-05-05 03:53:00
9:53 PM,66.0,33.1,29,29.99,10.0,NE,11.5,-,N/A,,Clear,50,2013-05-05 04:53:00
10:53 PM,55.9,39.0,53,29.98,10.0,North,8.1,-,N/A,,Clear,10,2013-05-05 05:53:00
11:53 PM,54.0,37.9,55,29.98,10.0,NNE,9.2,-,N/A,,Clear,20,2013-05-05 06:53:00